Location: New Canada
(47.1017°N, 68.5042°W)
Time: 02:33:28
(UTC+00:00)

ISS - Visible Passes

Search period start: 07 December 2022 00:00
Search period end: 17 December 2022 00:00
Orbit: 414 x 420 km, 51.6° (Epoch: 06 December)

Date Brightness Start Highest point End Pass type
(mag) Time Alt. Az. Time Alt. Az. Time Alt. Az.
07 Dec -2.1 21:30:21 10° WNW 21:33:29 37° SW 21:36:35 10° SSE visible
08 Dec 0.0 22:21:26 10° SW 22:21:31 10° SW 22:21:36 10° SW visible
09 Dec -0.6 21:31:22 10° W 21:33:32 16° SW 21:35:42 10° S visible
16 Dec -0.4 11:03:53 10° SSE 11:05:28 13° SE 11:07:04 10° ESE visible
